Location: Paderno d�Adda
(45.6667°N, 9.4333°E)
Time: 01:09:21
(UTC+00:00)

Cosmos 494 Rocket - Pass Details

Date: 19 September 2020
Orbit: 741 x 771 km, 74.1° (Epoch: 26 October)

Event Time Altitude Azimuth Distance (km) Brightness Sun altitude
Rises 19:17:04 0° 340° (NNW) 3,245 7.9 -19.8°
Reaches altitude 10° 19:19:29 10° 343° (NNW) 2,318 7.0 -20.2°
Maximum altitude 19:24:43 66° 66° (ENE) 841 4.0 -21.1°
Enters shadow 19:26:06 47° 127° (SE) 1,016 4.2 -21.3°
